Showing default

POLAR SCOUT KODIAK, 43764

Orbit data source: Space-Track

POLAR SCOUT KODIAK, 43764 is an American payload satellite in SSO that was launched on Mon, 03 Dec 2018 UTC via an FALCON 9 launch vehicle from the Air Force Western Test Range (AFWTR). Payload-class satellites include a variety of spacecraft equipped with specific instruments for various scientific and technological missions. These include communications satellites like Starlink; space stations such as the ISS; scientific satellites like the Hubble; Earth observation satellites from companies like Planet Labs, Umbra, and HawkEye 360; GPS; miniature CubeSats for education and research; and military/defense satellites.

Loading next visibility...
Identifier
43764, 2018-099G
Orbit
SSO
Country
Flag of USUS
Related business
Manufacturer
Millenium EI
Mission
Operational Defense Technology
Bus & Motor
CUBESAT 6U, Unknown motor
Mass
10 kg wet, 10 kg dry
Launch date (UTC)
2018-12-03 (7 years ago)
Launch vehicle
FALCON 9
Launch site
Air Force Western Test Range (AFWTR)
Object type
Payload
Rocket body
Debris
Shape & HBR
Box + 3 Pan, 0.3 m
Radar Cross Section
0.054 m², Medium (>0.1 m² and < 1m²)

Expand to show TLE details & history
Last TLE update: 16 hours ago

TLE from 16 hours ago
0 POLAR SCOUT KODIAK
1 43764U 18099G   26034.48441521  .00063613  00000-0  10796-2 0  9999
2 43764  97.4350 111.5839 0006435 355.3548   4.7643 15.51255279394050
Epoch: 2026-02-03T11:37Z
TLE epoch observation values (Epoch: 2026-02-03T11:37:33.474Z)
Latitude
-0.00001°
Longitude
163.52974°
Altitude
411.836 km
Speed
7.666 km/s
True Right ascension
07h 26m 20s
True Declination
0° 00' 00"
Sunlit
Object was in full shadow at epoch
Visualization orbit readout
Latitude
Unknown
Longitude
Unknown
Altitude
Unknown
Speed
Unknown
Apparent Right ascension
Unknown
Apparent Declination
Unknown
Sunlit
N/A
Visualization observer readout
Local Sidereal Time
05:20:29
Azimuth
Unknown
Elevation
Unknown
Doppler factor
Unknown
Orbital elements
Apogee altitude
414.354 km
Perigee altitude
405.617 km
Semi-major axis
6,788.123 km
Eccentricity
0.00064
Inclination
97.435°
RAAN
111.5839°
Arg. of periapsis
355.3548°
True anomaly
4.77043°
Mean anomaly
4.7643°
Eccentric anomaly
4.76736°
Mean motion
3.88078 °/min
Orbital period
92.76 mins
BSTAR
0.0010796
Loading maneuver chart data...
Computing Atmospheric mass density...
Loading historical data...
Loading historical data...
Loading historical data...
Loading historical data...
Loading historical data...
Loading historical data...
Loading historical data...

Documentation

Showing up to 5 results
|